This demonstration page uses our WeatherBlox Daily Observations layout. Learn more.

Left ArrowRight Arrow

39.29038, -76.61219

Hourly Observations for June 19, 2020

Temp ( °F °C ) Dew Point ( °F °C ) Humidity (%) Winds ( mph kmh ) Pressure ( in mb ) Visibility ( mi km ) Precip ( " mm )
12:54 am 00:54 Mostly Cloudy 71 21.7 63 17.2 76 76 SSE 5 7 30.09 1019 10 16 0.00 0.00
1:54 am 01:54 Mostly Clear 70 21.1 63 17.2 79 79 Calm 30.09 1019 10 16 0.00 0.00
2:54 am 02:54 Mostly Clear 69 20.6 64 17.8 84 84 Calm 30.08 1019 10 16 0.00 0.00
3:54 am 03:54 Mostly Clear 67 19.4 63 17.2 87 87 Calm 30.09 1019 10 16 0.00 0.00
4:54 am 04:54 Mostly Clear 65 18.3 62 16.7 90 90 Calm 30.09 1019 10 16 0.00 0.00
5:54 am 05:54 Partly Cloudy 67 19.4 63 17.2 87 87 Calm 30.10 1019 10 16 0.00 0.00
6:54 am 06:54 Mostly Cloudy 68 20 64 17.8 87 87 Calm 30.11 1020 10 16 0.00 0.00
7:54 am 07:54 Mostly Cloudy 71 21.7 66 18.9 84 84 ESE 3 6 30.12 1020 10 16 0.00 0.00
8:54 am 08:54 Mostly Cloudy 73 22.8 66 18.9 79 79 ESE 3 6 30.12 1020 10 16 0.00 0.00
9:54 am 09:54 Mostly Cloudy 76 24.4 67 19.4 74 74 SE 6 9 30.11 1020 10 16 0.00 0.00
10:54 am 10:54 Mostly Cloudy 78 25.6 66 18.9 67 67 SSW 5 7 30.11 1020 10 16 0.00 0.00
11:54 am 11:54 Mostly Cloudy 80 26.7 65 18.3 60 60 S 9 15 30.09 1019 10 16 0.00 0.00
12:54 pm 12:54 Mostly Cloudy 82 27.8 67 19.4 60 60 SE 7 11 30.09 1019 10 16 0.00 0.00
1:54 pm 13:54 Mostly Cloudy 82 27.8 66 18.9 58 58 SSE 9 15 30.06 1018 10 16 0.00 0.00
2:54 pm 14:54 Mostly Cloudy 81 27.2 65 18.3 58 58 VRB 6 9 30.04 1017 10 16 0.00 0.00
3:54 pm 15:54 Mostly Cloudy 80 26.7 65 18.3 60 60 SSE 6 9 30.04 1017 10 16 0.00 0.00
4:54 pm 16:54 Mostly Cloudy with Light Rain 79 26.1 65 18.3 62 62 SSE 9 15 30.03 1017 10 16 0.00 0.00
5:40 pm 17:40 Mostly Cloudy with Thunderstorms 77 25 67 19.4 71 71 W 3 6 30.03 1017 10 16 0.00 0.00
5:54 pm 17:54 Mostly Cloudy with Thunderstorms 77 25 67 19.4 71 71 Calm 30.04 1017 10 16 0.00 0.00
6:17 pm 18:17 Mostly Cloudy 76 24.4 68 20 77 77 NNE 3 6 30.03 1017 10 16 0.00 0.00
6:54 pm 18:54 Mostly Cloudy with Light Rain 75 23.9 69 20.6 82 82 NW 6 9 30.03 1017 9 14 0.01 0.25
7:47 pm 19:47 Mostly Cloudy with Thunderstorms 76 24.4 68 20 77 77 E 5 7 30.03 1017 7 11 0.01 0.25
7:54 pm 19:54 Mostly Cloudy with Thunderstorms 75 23.9 68 20 79 79 E 3 6 30.04 1017 7 11 0.01 0.25
8:10 pm 20:10 Mostly Cloudy 73 22.8 68 20 84 84 N 9 15 30.05 1018 10 16 0.00 0.00
8:45 pm 20:45 Mostly Cloudy with Thunderstorms 74 23.3 67 19.4 79 79 ENE 7 11 30.05 1018 10 16 0.00 0.00
8:54 pm 20:54 Mostly Cloudy with Thunderstorms 74 23.3 67 19.4 79 79 E 5 7 30.05 1018 10 16 0.00 0.00
9:47 pm 21:47 Mostly Cloudy 73 22.8 66 18.9 79 79 ESE 5 7 30.07 1018 10 16 0.00 0.00
9:54 pm 21:54 Mostly Cloudy 73 22.8 67 19.4 81 81 ESE 6 9 30.07 1018 10 16 0.00 0.00
10:54 pm 22:54 Mostly Cloudy 72 22.2 67 19.4 84 84 SW 5 7 30.07 1018 10 16 0.00 0.00
11:54 pm 23:54 Partly Cloudy 70 21.1 67 19.4 90 90 Calm 30.07 1018 10 16 0.00 0.00

Powered by AerisWeather